Location: Newark
(45.8667°N, 9.7333°E)
Time: 04:39:19
(UTC+00:00)

A-11 Canister half - Pass Details

Date: 23 January 2020
Orbit: 1517 x 1683 km, 47.2° (Epoch: 17 February)

Event Time Altitude Azimuth Distance (km) Brightness Sun altitude
Rises 07:47:28 0° 286° (WNW) 4,672 10.9 7.1°
Reaches altitude 10° 07:52:19 10° 265° (W) 3,701 10.6 7.8°
Maximum altitude 07:56:47 15° 235° (SW) 3,366 10.7 8.4°
Drops below altitude 10° 08:01:19 10° 206° (SSW) 3,741 11.3 9.0°
Sets 08:06:20 0° 184° (S) 4,755 12.2 9.6°
